TimeEDT,TemperatureF,Dew PointF,Humidity,Sea Level PressureIn,VisibilityMPH,Wind Direction,Wind SpeedMPH,Gust SpeedMPH,PrecipitationIn,Events,Conditions,WindDirDegrees,DateUTC
12:56 AM,37.9,27.0,65,30.31,10.0,South,4.6,-,N/A,,Clear,190,2013-10-26 04:56:00
1:56 AM,37.0,26.1,65,30.30,10.0,South,5.8,-,N/A,,Clear,170,2013-10-26 05:56:00
2:56 AM,35.1,27.0,72,30.29,10.0,SSE,4.6,-,N/A,,Clear,160,2013-10-26 06:56:00
3:56 AM,32.0,27.0,82,30.27,10.0,ESE,3.5,-,N/A,,Clear,110,2013-10-26 07:56:00
4:56 AM,33.1,27.0,78,30.25,10.0,SE,5.8,-,N/A,,Clear,140,2013-10-26 08:56:00
5:56 AM,34.0,26.1,73,30.25,10.0,SSE,4.6,-,N/A,,Clear,150,2013-10-26 09:56:00
6:56 AM,32.0,26.1,79,30.25,10.0,ESE,4.6,-,N/A,,Clear,120,2013-10-26 10:56:00
7:56 AM,32.0,26.1,79,30.24,10.0,East,3.5,-,N/A,,Clear,90,2013-10-26 11:56:00
8:56 AM,36.0,28.0,73,30.22,9.0,SSE,6.9,-,N/A,,Partly Cloudy,160,2013-10-26 12:56:00
9:56 AM,41.0,28.0,60,30.20,10.0,SSW,9.2,-,N/A,,Mostly Cloudy,200,2013-10-26 13:56:00
10:56 AM,44.1,28.9,55,30.17,10.0,SSW,6.9,-,N/A,,Overcast,200,2013-10-26 14:56:00
11:56 AM,45.0,28.9,53,30.16,10.0,SW,11.5,-,N/A,,Overcast,220,2013-10-26 15:56:00
12:56 PM,48.0,30.0,50,30.11,10.0,SSW,12.7,-,N/A,,Overcast,210,2013-10-26 16:56:00
1:56 PM,52.0,30.9,45,30.08,10.0,SW,11.5,-,N/A,,Mostly Cloudy,230,2013-10-26 17:56:00
2:56 PM,55.9,32.0,40,30.05,10.0,SW,17.3,25.3,N/A,,Scattered Clouds,220,2013-10-26 18:56:00
3:56 PM,57.0,33.1,40,30.03,10.0,SW,17.3,23.0,N/A,,Scattered Clouds,220,2013-10-26 19:56:00
4:56 PM,57.9,34.0,41,29.99,10.0,SSW,15.0,21.9,N/A,,Scattered Clouds,200,2013-10-26 20:56:00
5:56 PM,57.0,35.1,44,30.01,10.0,SW,13.8,-,N/A,,Mostly Cloudy,220,2013-10-26 21:56:00
6:56 PM,54.0,36.0,51,30.04,10.0,WSW,11.5,-,N/A,,Mostly Cloudy,240,2013-10-26 22:56:00
7:56 PM,52.0,37.0,57,30.06,10.0,SW,9.2,-,N/A,,Scattered Clouds,220,2013-10-26 23:56:00
8:56 PM,51.1,37.0,59,30.06,10.0,SW,8.1,-,N/A,,Partly Cloudy,230,2013-10-27 00:56:00
9:56 PM,50.0,37.9,63,30.07,10.0,WSW,9.2,-,N/A,,Partly Cloudy,240,2013-10-27 01:56:00
10:56 PM,48.9,39.0,69,30.09,10.0,West,9.2,-,N/A,,Clear,260,2013-10-27 02:56:00
11:56 PM,45.0,37.9,76,30.10,10.0,West,4.6,-,N/A,,Clear,270,2013-10-27 03:56:00